Powrót do katalogu

STARLINK-33750

AktywnyŁącznośćVLEO
NORAD 63513·PAYLOAD·🇺🇸 United States

Wystrzelony Apr 7, 2025 z Vandenberg Space Force Base

Loading…

Następne Przeloty (najbliższe 24 godziny)

TLE

ŚwieżeSource: CelesTrak SupGP

Epoka: Sep 15, 2026, 02:52 UTC

1 63513C 25071W   26258.11993056  .00067300  00000+0  21640-2 0  2588
2 63513  53.1593 338.6749 0001211  93.2211 179.0091 15.31670737    17

Śledź STARLINK-33750 w czasie rzeczywistym z AllMySat

Download on the App Store